Location: River House Observatory
(37.8577°N, 76.3548°W)
Time: 23:13:23
(UTC-05:00)

Daily predictions for brighter satellites

Satellite Brightness Start Highest point End
(mag) Time Altitude Azimuth Time Altitude Azimuth Time Altitude Azimuth
ATLAS 2AS CENTAUR R/B 3.6 17:10:02 10° S 17:16:53 38° ESE 17:24:07 10° NE
Cosmos 1500 3.4 17:15:12 10° N 17:18:53 47° E 17:22:30 10° SSE
Cosmos 1656 Rocket 3.7 17:14:07 10° SSW 17:19:42 88° WNW 17:25:14 10° NNE
Cosmos 1680 Rocket 3.6 17:14:57 10° NNW 17:20:15 87° WSW 17:25:32 10° SSE
NOSS 2-3 (E) 3.8 17:16:07 10° SSW 17:20:37 68° ESE 17:25:45 10° NE
Cosmos 1607 4.4 17:16:20 10° NNW 17:22:30 43° NE 17:28:33 10° ESE
YAOGAN 1 3.4 17:20:29 10° SE 17:24:12 29° ENE 17:27:56 10° N
IDEFIX/ARIANE 42P 4.4 17:19:53 10° SSW 17:24:36 35° W 17:29:19 10° NNW
IRAS Rocket 4.2 17:25:04 10° SSE 17:30:34 89° ENE 17:36:05 10° NNW
Cosmos 2297 Rocket 3.8 17:28:26 10° NNE 17:30:53 13° NE 17:32:43 11° ENE
CORIOLIS 4.2 17:25:38 10° SSE 17:30:58 61° ENE 17:36:19 10° N
Cosmos 1818 3.7 17:26:11 10° SW 17:31:35 78° WNW 17:37:03 10° NNE
ATLAS 3B R/B 3.8 17:28:26 10° N 17:33:21 21° NE 17:37:53 11° E
Cosmos 1812 3.9 17:31:15 10° SSW 17:34:58 46° W 17:38:43 10° N
Meteor 1-12 Rocket 4.5 17:30:21 10° N 17:35:49 48° ENE 17:41:20 10° SSE
USA 215 4.0 17:30:35 10° SSE 17:36:58 57° SW 17:43:23 10° NW
SMAP 3.0 17:32:48 10° SSE 17:37:26 83° ENE 17:42:06 10° N
COSMO-SKYMED 1 3.3 17:33:54 10° NNE 17:37:50 33° E 17:41:43 10° SSE
Delta 2 Rocket 4.2 17:34:30 10° WSW 17:39:54 60° S 17:44:15 13° E
ERS-2 3.1 17:39:33 10° SE 17:42:36 25° ENE 17:45:38 10° NNE
Cosmos 389 Rocket 3.2 17:39:42 10° NNE 17:42:51 30° ENE 17:45:57 10° SE
ISS -1.4 17:43:05 10° NNE 17:43:08 10° NNE 17:43:11 10° NNE
Aureole 1 Rocket 4.2 17:38:13 10° N 17:43:48 53° ENE 17:50:59 10° SE
Cosmos 1943 Rocket 4.2 17:39:29 10° WSW 17:44:00 24° WNW 17:48:35 10° N
CZ-2C R/B 3.7 17:39:21 10° NNE 17:44:00 72° ESE 17:48:42 10° S
Cosmos 1634 Rocket 4.3 17:38:24 10° SSW 17:44:33 71° W 17:50:47 10° N
Cosmos 1898 Rocket 3.7 17:40:03 10° SSW 17:45:12 75° WNW 17:50:28 10° NNE
ALOS 3.1 17:42:11 10° SE 17:46:06 27° ENE 17:50:02 10° NNE
Cosmos 1655 Rocket 4.1 17:40:42 10° N 17:47:00 61° E 17:53:17 10° SSE
Cosmos 1975 Rocket 3.1 17:44:15 10° S 17:48:42 89° WSW 17:53:13 10° N
DELTA 2 R/B (1) 3.8 17:43:39 10° WSW 17:49:08 63° SSE 17:53:20 18° E
Hubble Space Telescope 3.0 17:46:25 10° SSW 17:49:10 17° SSE 17:51:55 10° SE
IRS-1A Rocket 4.2 17:44:11 10° SSE 17:49:47 68° ENE 17:55:19 10° N
Ariane Rocket 3.3 17:44:52 10° S 17:49:54 72° WSW 17:54:59 10° NNW
USA 116 3.1 17:47:16 10° NNE 17:50:36 84° ESE 17:53:43 10° SSW
Cosmos 1666 3.3 17:48:15 10° NNE 17:51:41 33° ENE 17:55:04 10° SE
Cosmos 2298 Rocket 4.0 17:46:24 10° SSW 17:51:42 83° ESE 17:57:02 10° NNE
Abrixas rocket 2.1 17:50:05 10° SW 17:53:19 86° NW 17:55:07 24° NE
NOSS 2-3 (C) 4.3 17:51:39 10° SW 17:56:10 59° NW 18:01:25 10° NNE
MTI 3.7 17:56:22 12° NNE 17:59:16 65° ESE 18:02:27 10° S
SJ 16-02 2.7 17:57:21 10° SE 18:00:16 19° E 18:00:16 19° E
Cosmos 1937 Rocket 3.7 17:59:31 10° SSW 18:04:42 70° WNW 18:09:52 10° NNE
Atlas Centaur 2 2.9 18:01:29 10° SW 18:05:30 28° S 18:08:02 15° SE
ATLAS CENTAUR R/B 3.5 18:02:21 10° NW 18:05:53 29° WSW 18:09:36 10° S
SKYMED 3 4.5 18:03:38 10° NNE 18:07:59 75° E 18:12:19 10° S
EO 1 Del DPAF 3.1 18:06:52 16° NNE 18:09:51 64° ESE 18:13:37 10° S
Cosmos 2266 Rocket 4.1 18:10:54 10° N 18:16:44 48° E 18:22:37 10° SSE
Cosmos 1536 Rocket 3.6 18:12:33 10° S 18:16:48 53° E 18:19:12 24° NNE
CZ-4 R/B 2.8 18:16:42 10° SSW 18:20:16 37° W 18:23:54 10° NNW
Cosmos 1743 2.7 18:17:40 10° N 18:21:32 80° W 18:25:24 10° S
Cosmos 1975 4.0 18:19:12 10° NNW 18:23:03 45° W 18:26:54 10° SSW
SKYMED 2 3.9 18:21:39 10° N 18:25:57 68° WNW 18:30:15 10° SSW
USA 238 DEB 4.1 18:19:26 10° NNW 18:26:12 44° NE 18:29:39 27° ESE
USA 238 4.1 18:19:32 10° NNW 18:26:17 44° NE 18:29:39 27° ESE
Cosmos 1697 Rocket 3.8 18:25:23 10° SSE 18:28:49 24° ESE 18:28:49 24° ESE
Cosmos 2082 4.3 18:26:08 10° N 18:30:33 33° NE 18:30:33 33° NE
PSLV R/B 4.4 18:30:08 10° SW 18:32:24 31° S 18:32:24 31° S
FENGYUN 3A 3.5 18:29:38 10° SSE 18:35:02 84° ENE 18:40:26 10° NNW
BREEZE-M DEB (TANK) 4.4 18:13:44 10° WNW 18:39:43 62° N 18:41:39 41° ENE
Cosmos 372 Rocket 3.9 18:36:46 10° S 18:41:53 60° ESE 18:42:41 53° ENE
SPOT 3 Rocket 3.6 18:36:50 10° S 18:42:01 79° WSW 18:47:14 10° NNW
H-2A R/B 4.0 18:41:15 10° S 18:41:23 11° S 18:41:23 11° S
Cosmos 468 4.5 18:38:40 10° N 18:43:57 60° ENE 18:45:31 42° SE
Cosmos 2219 4.0 18:40:44 10° NNW 18:46:09 51° WSW 18:51:33 10° S
Cosmos 1271 Rocket 3.8 18:42:52 10° NNW 18:46:28 43° W 18:50:05 10° SSW
Cosmos 2227 Rocket 2.1 18:42:23 10° NNW 18:47:59 60° ENE 18:48:56 52° ESE
Meteor 2-9 Rocket 4.3 18:50:58 10° NNW 18:56:31 74° W 19:01:53 10° S
Cosmos 1455 Rocket 4.5 18:54:02 10° NNW 18:58:08 38° W 19:02:11 10° SSW
NOSS 3-2 (A) 4.3 18:51:58 10° NNW 18:59:08 44° NE 18:59:15 44° NE
Thor Agena Rocket 3.5 19:01:21 66° SE 19:01:21 66° SE 19:06:05 10° S
Meteor 1-15 Rocket 4.2 19:00:31 10° N 19:06:28 76° E 19:12:22 10° SSE
ATLAS 2AS CENTAUR R/B 3.7 19:00:12 10° SW 19:07:42 50° NW 19:12:50 22° NNE
Cosmos 1980 Rocket 4.3 19:03:06 10° SSE 19:03:41 13° SSE 19:03:41 13° SSE
Cosmos 2297 Rocket 2.4 19:10:05 10° NNW 19:14:38 59° NNW 19:14:38 59° NNW
Gbstr 26 Del rocket 4.3 19:14:21 10° SW 19:22:08 66° SE 19:22:08 66° SE
ALOS 4.3 19:19:30 10° SSW 19:23:26 27° W 19:27:24 10° NW
ATLAS 3B R/B 2.5 19:18:12 10° NNW 19:24:51 84° WSW 19:25:15 79° S
NOSS 3-4 (A) 4.0 19:22:20 10° SSW 19:26:38 46° S 19:26:38 46° S
NOSS 3-4 (C) 4.1 19:22:25 10° SSW 19:26:41 45° S 19:26:41 45° S
Hubble Space Telescope 3.3 19:26:34 10° SW 19:27:52 16° SW 19:27:52 16° SW
DELTA 2 R/B (1) 4.3 19:30:01 10° W 19:34:06 49° WNW 19:34:06 49° WNW
SJ 16-02 3.4 19:34:50 10° SW 19:37:20 26° WSW 19:37:20 26° WSW
Atlas Centaur 2 4.5 19:50:28 10° WSW 19:50:40 11° WSW 19:50:40 11° WSW
